FW5887 Weather Reports


time (UTC)temp
C
wind
direction
speed
KPH
gust
KPH
rain 1hr
cm
rain 24hr
cm
rain mn
cm
humidity
%
barometer
mb
20260507000855 6 320 0.0 0.0 0.10 3.86 3.86 97 1008.8
20260506235831 6 21 0.0 4.8 0.25 3.86 3.86 97 1008.4
20260506234802 6 71 1.6 6.4 0.20 3.84 3.84 97 1008.2
20260506233751 6 123 0.0 3.2 0.23 3.78 3.81 97 1008.0
20260506232814 6 60 0.0 4.8 0.00 3.73 3.76 97 1008.1
20260506231754 6 351 1.6 9.7 0.00 3.73 3.71 97 1008.0
20260506225640 6 317 1.6 9.7 0.00 3.71 3.71 97 1007.5
20260506224626 6 42 0.0 0.0 0.15 3.71 3.71 97 1007.4
20260506223642 6 0 0.0 1.6 0.41 3.71 3.71 97 1007.4
20260506222705 6 93 1.6 12.9 0.00 3.68 3.66 97 1007.2
20260506221646 6 101 0.0 3.2 0.10 3.63 3.63 97 1007.1
20260506220710 6 8 0.0 4.8 0.23 3.63 3.63 97 1006.9
20260506215646 6 13 0.0 3.2 0.00 3.63 3.61 97 1006.7
20260506214612 6 27 0.0 3.2 0.00 3.58 3.56 97 1006.5
20260506213602 6 36 1.6 12.9 0.10 3.58 3.56 97 1006.3
20260506205234 6 1 1.6 8.0 0.00 3.51 3.51 97 1006.2
20260506204251 6 56 0.0 1.6 0.00 3.51 3.48 97 1006.2
20260506201108 6 58 1.6 9.7 0.23 3.51 3.48 97 1006.1
20260506200131 6 136 1.6 0.0 0.13 3.48 3.45 97 1006.1
20260506195144 6 8 0.0 3.2 0.20 3.48 3.43 97 1006.3
20260506194125 6 69 3.2 9.7 0.23 3.48 3.40 97 1006.4
20260506193059 6 79 3.2 12.9 0.64 3.45 3.35 97 1006.3
20260506192034 6 34 1.6 12.9 0.64 3.40 3.28 97 1006.1
20260506191048 6 33 0.0 3.2 0.33 3.35 3.20 97 1006.2
20260506190049 6 2 0.0 6.4 0.61 3.33 3.17 97 1006.2
20260506185101 6 74 0.0 0.0 0.94 3.20 3.07 97 1006.3
20260506184122 6 79 0.0 0.0 0.91 3.10 2.97 97 1006.2
20260506183050 6 85 0.0 8.0 0.33 2.97 2.79 97 1005.9
20260506182109 6 302 0.0 11.3 0.46 2.87 2.74 96 1006.8
20260506181125 6 65 0.0 6.4 0.43 2.82 2.67 97 1005.8
20260506180109 6 247 0.0 0.0 0.58 2.69 2.59 97 1006.0
20260506175132 7 17 1.6 9.7 0.38 2.64 2.51 96 1005.8
20260506174143 7 37 0.0 4.8 0.69 2.62 2.46 97 1005.7
20260506173113 7 284 0.0 0.0 0.84 2.41 2.29 97 1006.0
20260506172116 7 124 1.6 6.4 0.41 2.31 2.18 97 1005.7
20260506171057 7 63 1.6 6.4 0.33 2.26 2.11 97 1006.0
20260506170023 7 31 0.0 1.6 0.43 2.18 2.06 97 1006.1
20260506163821 7 308 1.6 6.4 0.33 2.03 1.91 97 1006.3
20260506162805 7 312 0.0 1.6 0.33 1.98 1.85 97 1006.8
20260506160628 8 302 0.0 0.0 0.64 1.80 1.68 97 1006.5
20260506155620 8 30 0.0 3.2 0.66 1.73 1.60 97 1006.6
20260506154553 8 342 0.0 6.4 0.48 1.65 1.52 97 1006.7
20260506153520 8 18 0.0 6.4 0.51 1.55 1.40 96 1006.8
20260506152450 8 340 0.0 0.0 0.38 1.47 1.32 97 1006.7
20260506151502 8 23 0.0 0.0 0.48 1.40 1.24 97 1007.0
20260506150449 8 30 0.0 1.6 0.46 1.30 1.14 97 1007.0
20260506145500 8 41 0.0 3.2 0.38 1.22 1.07 97 1007.2
20260506144454 8 49 0.0 0.0 0.51 1.14 0.97 97 1007.4
20260506143427 8 51 0.0 0.0 0.58 1.04 0.91 96 1007.6
20260506142411 8 315 0.0 0.0 0.64 0.94 0.81 96 1007.6
20260506140309 8 305 0.0 0.0 0.43 0.76 0.64 96 1007.4
20260506135309 8 6 0.0 0.0 0.25 0.69 0.58 96 1007.3
20260506134330 9 2 0.0 1.6 0.25 0.64 0.53 96 1007.3
20260506133300 10 338 0.0 0.0 0.30 0.64 0.48 96 1007.3
20260506132311 10 6 0.0 0.0 0.43 0.56 0.43 97 1007.2
20260506131329 10 344 0.0 0.0 0.69 0.51 0.38 97 1007.4
20260506130255 10 301 0.0 0.0 0.20 0.46 0.30 97 1007.2
20260506125253 10 39 1.6 6.4 0.15 0.41 0.25 97 1007.5
20260506124309 10 51 0.0 6.4 0.46 0.38 0.23 97 1007.5
20260506123303 10 318 0.0 0.0 0.33 0.33 0.15 97 1007.8
20260506122300 10 65 0.0 0.0 0.20 0.25 0.13 97 1008.0
20260506121230 11 162 0.0 0.0 0.00 0.23 0.08 96 1007.6
20260506120219 11 58 0.0 0.0 0.00 0.23 0.08 96 1007.2
20260506115232 11 58 1.6 6.4 0.00 0.23 0.08 97 1007.0
20260506114229 11 12 0.0 0.0 0.00 0.23 0.08 97 1007.2
20260506113201 11 318 0.0 0.0 0.00 0.23 0.08 97 1007.4
20260506112145 12 288 0.0 3.2 0.00 0.23 0.08 97 1007.2
20260506111143 12 65 1.6 8.0 0.00 0.23 0.08 97 1006.9
20260506110111 12 223 0.0 1.6 0.00 0.23 0.08 97 1007.2
20260506105048 12 270 0.0 1.6 0.00 0.20 0.05 97 1007.4
20260506104016 12 304 0.0 0.0 0.00 0.20 0.05 97 1006.9
20260506102944 12 325 0.0 0.0 0.00 0.20 0.05 97 1007.0
20260506101959 12 325 0.0 0.0 0.00 0.20 0.05 97 1006.9
20260506094652 12 325 0.0 0.0 0.00 0.20 0.05 97 1006.7
20260506093714 12 325 0.0 0.0 0.00 0.20 0.05 97 1006.8
20260506092737 12 15 0.0 0.0 0.00 0.20 0.05 97 1006.5
20260506090631 12 58 0.0 0.0 0.00 0.20 0.05 97 1007.0
20260506084538 12 59 0.0 0.0 0.00 0.20 0.05 96 1007.1
20260506082503 12 277 0.0 0.0 0.00 0.20 0.05 96 1007.5
20260506080456 13 277 0.0 0.0 0.00 0.20 0.05 96 1007.4
20260506073421 13 278 0.0 0.0 0.00 0.20 0.05 96 1007.6
20260506072417 13 278 0.0 0.0 0.00 0.20 0.05 96 1007.6
20260506061902 13 278 0.0 0.0 0.00 0.20 0.05 95 1007.8
20260506060856 13 278 0.0 0.0 0.00 0.20 0.05 95 1007.7
20260506050909 14 69 0.0 0.0 0.00 0.20 0.05 93 1008.3
20260506044854 15 264 0.0 0.0 0.00 0.20 0.05 91 1008.5
20260506042753 15 266 0.0 0.0 0.10 0.20 0.05 88 1008.1
20260506041743 15 251 0.0 0.0 0.15 0.20 0.05 87 1008.1
20260506040800 16 234 0.0 0.0 0.00 0.15 0.03 86 1008.1
20260506034824 16 255 0.0 0.0 0.00 0.15 0.15 85 1007.8
20260506033812 15 242 0.0 0.0 0.00 0.15 0.15 88 1008.0
20260506031714 16 242 0.0 0.0 0.00 0.15 0.15 85 1007.6
20260506025607 16 237 0.0 0.0 0.00 0.15 0.15 80 1007.6
20260506023451 16 214 0.0 0.0 0.00 0.15 0.15 81 1007.5
20260506022421 16 214 0.0 0.0 0.00 0.15 0.15 82 1007.5
20260506021427 16 197 0.0 0.0 0.00 0.15 0.15 82 1007.4
20260506015236 16 357 0.0 0.0 0.00 0.15 0.15 80 1007.1
20260506014300 16 358 0.0 0.0 0.00 0.15 0.15 79 1007.0
20260506013254 16 243 0.0 0.0 0.00 0.15 0.15 78 1006.9
20260506011159 16 206 0.0 3.2 0.00 0.15 0.15 80 1006.9
20260506010210 15 191 0.0 0.0 0.00 0.15 0.15 82 1006.6
20260506004045 15 210 0.0 0.0 0.00 0.15 0.15 81 1006.0
20260506001939 16 210 0.0 0.0 0.00 0.15 0.15 78 1005.8